Weather History for San Jose Del Cabo, Mexico

Change the Weather History Date:

Saturday, August 24, 2013

  Actual Average Record
Temperature  
Mean Temperature 80 °F -  
Max Temperature 84 °F - - ()
Min Temperature 77 °F - - ()
Cooling Degree Days 16    
Growing Degree Days 30 (Base 50)    
Moisture  
Dew Point 74 °F    
Average Humidity 79    
Maximum Humidity 94    
Minimum Humidity 70    
Precipitation  
Precipitation 0.45 in - - ()
Sea Level Pressure  
Sea Level Pressure 29.80 in    
Wind  
Wind Speed 15 mph ()    
Max Wind Speed 23 mph    
Max Gust Speed -    
Visibility 6.7 miles    
Events Rain    
T = Trace of Precipitation, MM = Missing Value Source: Averaged Metar Reports

Daily Weather History Graph

Daily Weather History Graph

Search for Another Location

Airport:

Trip Planner

Search our weather history database for the weather conditions in past years. The results will help you decide how hot, cold, wet, or windy it might be!

Date:

Astronomy

Aug. 24, 2013 Rise Set
Actual Time 6:58 AM MDT 7:43 PM MDT
Civil Twilight 6:35 AM MDT 8:06 PM MDT
Nautical Twilight 6:08 AM MDT 8:33 PM MDT
Astronomical Twilight 5:40 AM MDT 9:01 PM MDT
Moon 10:16 PM MDT (8/24) 10:26 AM MDT (8/24)
Length of Visible Light 13h 31m
Length of Day
12h 44m
Waning Gibbous, 84% of the Moon is Illuminated
Aug 24
Waning Gibbous
Aug 28
Last Quarter
Sep 5
New
Sep 12
First Quarter
Sep 19
Full

Hourly Weather History & Observations

Time (MDT) Temp. Heat Index Dew Point Humidity Pressure Visibility Wind Dir Wind Speed Gust Speed Precip Events Conditions
6:31 AM 80.6 °F 85.4 °F 73.4 °F 79% 29.75 in 5.0 mi ESE 17.3 mph - N/A   Overcast
6:40 AM 80.6 °F 85.4 °F 73.4 °F 79% 29.79 in 5.0 mi ESE 17.3 mph - N/A   Overcast
7:41 AM 80.6 °F 85.4 °F 73.4 °F 79% 29.80 in 6.0 mi SE 11.5 mph - N/A   Mostly Cloudy
8:42 AM 82.4 °F 88.2 °F 73.4 °F 74% 29.77 in 8.0 mi SE 17.3 mph - N/A   Mostly Cloudy
9:11 AM 80.6 °F 85.4 °F 73.4 °F 79% 29.80 in 3.0 mi SE 23.0 mph - N/A Rain Light Rain
9:22 AM 77.0 °F - 73.4 °F 89% 29.81 in 1.5 mi SSE 17.3 mph - N/A Rain Heavy Rain
9:42 AM 77.0 °F - 73.4 °F 89% 29.81 in 2.0 mi South 11.5 mph - N/A Rain Rain
10:32 AM 82.4 °F 88.2 °F 73.4 °F 74% 29.83 in 6.0 mi SE 17.3 mph - N/A   Mostly Cloudy
10:43 AM 80.6 °F 85.4 °F 73.4 °F 79% 29.83 in 6.0 mi SE 23.0 mph - N/A   Drizzle
11:44 AM 82.4 °F 88.2 °F 73.4 °F 74% 29.80 in 10.0 mi SSE 17.3 mph - N/A   Mostly Cloudy
12:50 PM 84.2 °F 90.9 °F 73.4 °F 70% 29.82 in 10.0 mi ESE 17.3 mph - N/A   Mostly Cloudy
1:42 PM 84.2 °F 90.9 °F 73.4 °F 70% 29.81 in 10.0 mi SE 23.0 mph - N/A   Mostly Cloudy
2:45 PM 84.2 °F 90.9 °F 73.4 °F 70% 29.76 in 10.0 mi SSE 23.0 mph - N/A   Mostly Cloudy
3:47 PM 82.4 °F 88.2 °F 73.4 °F 74% 29.79 in 10.0 mi SE 21.9 mph - N/A   Mostly Cloudy
4:46 PM 82.4 °F 88.2 °F 73.4 °F 74% 29.78 in 10.0 mi SE 23.0 mph - N/A   Mostly Cloudy
5:47 PM 82.4 °F 88.2 °F 73.4 °F 74% 29.73 in 10.0 mi SE 19.6 mph - N/A   Mostly Cloudy
6:42 PM 82.4 °F 88.2 °F 73.4 °F 74% 29.78 in 10.0 mi SE 17.3 mph - N/A   Overcast
7:26 PM 80.6 °F 85.4 °F 73.4 °F 79% 29.79 in 1.5 mi SE 16.1 mph - N/A Rain Rain Showers
7:50 PM 78.8 °F - 75.2 °F 89% 29.80 in 4.0 mi SSE 15.0 mph - N/A   Overcast
8:46 PM 78.8 °F - 75.2 °F 89% 29.79 in 10.0 mi SE 10.4 mph - N/A   Scattered Clouds
9:11 PM 77.0 °F - 73.4 °F 89% 29.83 in 3.0 mi SSE 17.3 mph - N/A Rain Rain Showers
9:42 PM 77.0 °F - 75.2 °F 94% 29.85 in 6.0 mi SSE 10.4 mph - N/A   Overcast